SCP
-0 0 -0 -0 -0 -0 -0 -0 0 0 -0 0 0 0 0 0 0 0 0 0 0 -0 0 0 0 -0 0 0 0 0 0 0 0 0 0 0 0 0 0 0 0 0 0
-0 -0 -0 -0 -0 -0 -0 0 -0 -0 -0 -0 0 0 0 0 0 0 0 -0 -0 0 0 0 0 0 0 0 0 0 -0 0 0 0 0 0 0 0 -0 0 -0 0 0
-0 -0 -0 0 -0 0 -0 0 0 0 0 0 -0 -0 0 0 0 0 0 0 -0 0 0 0 0 0 0 0 0 -0 0 0 -0 -0 -0 0 0 0 0 0 0 0 0
-0 -0 -0 -0 -0 -0 0 0 0 0 0 0 -0 0 0 0 0 0 0 0 0 0 0 0 0 0 0 0 0 0 0 0 0 0 0 -0 0 0 0 0 0 0 0
-0 -0 -0 -0 -0 -0 -0 0 0 0 0 0 0 0 0 0 0 0 0 0 -0 0 0 0 0 0 0 0 0 -0 -0 0 0 0 0 -0 -0 0 0 0 0 0 0
-0 -0 -0 -0 -0 -0 0 0 0 0 0 0 0 0 -0 0 0 0 -0 -0 0 0 0 0 0 0 0 0 0 0 0 0 0 0 0 0 -0 0 0 -0 -0 0 0
-0 -0 -0 -0 -0 -0 -0 0 -0 -0 0 0 0 0 0 0 0 0 -0 -0 -0 0 0 0 0 0 -0 0 -0 -0 0 0 0 0 -0 0 0 -0 0 0 0 0 0
-0 -0 -0 -0 0 0 0 0 -0 -0 -0 -0 0 0 0 0 0 0 0 -0 -0 -0 0 -0 0 0 0 0 -0 0 0 0 0 0 0 -0 0 0 -0 0 0 0 0
-0 -0 -0 -0 -0 0 0 0 -0 -0 0 -0 -0 0 0 0 0 -0 -0 -0 -0 -0 -0 0 0 0 0 0 0 0 0 0 0 0 0 0 0 0 -0 -0 -0 -0 -0
0 -0 -0 -0 -0 -0 -0 -0 0 -0 -0 -0 -0 -0 -0 -0 -0 -0 -0 -0 -0 -0 0 -0 -0 -0 0 0 0 0 0 0 0 0 0 -0 0 -0 -0 -0 -0 -0 -0
0 0 -0 -0 -0 0 0 -0 0 -0 -0 -0 -0 -0 -0 -0 0 0 0 -0 -0 -0 -0 -0 -0 -0 -0 -0 0 0 -0 0 0 0 0 -0 0 -0 -0 -0 -0 -0 -0
-0 -0 -0 -0 -0 -0 0 -0 0 -0 -0 -0 -0 -0 0 -0 0 0 0 0 0 -0 0 -0 -0 0 -0 0 -0 0 0 -0 0 0 -0 -0 -0 -0 -0 -0 -0 -0 0
-0 -0 -0 -0 -0 -0 0 0 0 -0 0 -0 -0 0 0 -0 -0 -0 -0 -0 -0 0 0 0 0 0 0 0 -0 0 0 0 -0 -0 -0 0 -0 -0 -0 -0 -0 -0 0
-0 -0 -0 -0 -0 -0 -0 0 0 0 -0 -0 -0 0 -0 -0 -0 -0 -0 -0 0 0 -0 -0 -0 -0 0 0 0 0 -0 0 0 0 -0 0 0 0 -0 0 -0 -0 -0
-0 -0 -0 -0 -0 0 0 -0 0 0 -0 -0 -0 -0 -0 -0 -0 -0 -0 -0 -0 0 0 -0 0 0 0 0 0 0 0 -0 -0 0 0 -0 0 0 0 0 0 -0 -0
-0 -0 -0 -0 -0 0 0 0 0 -0 -0 -0 -0 -0 -0 -0 -0 -0 -0 -0 -0 -0 -0 0 0 -0 0 0 0 0 0 0 0 -0 0 -0 0 0 0 0 0 0 0
-0 -0 -0 -0 -0 0 0 0 0 0 -0 -0 -0 -0 0 -0 -0 0 -0 -0 0 0 0 -0 -0 -0 0 0 0 -0 0 0 -0 0 0 0 -0 0 0 0 0 0 0
-0 -0 -0 -0 -0 -0 0 -0 0 -0 -0 -0 -0 0 -0 -0 0 0 -0 -0 0 -0 0 -0 -0 0 -0 -0 0 -0 -0 0 0 0 0 -0 -0 -0 0 0 0 0 0
-0 -0 -0 -0 0 0 0 -0 -0 -0 -0 -0 -0 -0 0 0 0 0 0 0 0 -0 -0 -0 -0 -0 -0 -0 -0 -0 -0 -0 -0 0 0 0 0 0 -0 -0 0 0 0
-0 -0 -0 0 -0 0 -0 -0 -0 -0 -0 -0 -0 -0 0 -0 -0 0 0 0 0 -0 -0 0 -0 -0 -0 -0 -0 -0 0 -0 -0 0 -0 0 0 0 -0 0 0 0 0
-0 -0 -0 -0 -0 0 -0 -0 0 0 -0 -0 -0 0 0 -0 0 0 -0 0 0 -0 -0 0 0 -0 0 0 0 -0 -0 -0 -0 0 0 0 -0 0 0 0 0 0 0
-1 -0 -1 -1 -0 -0 0 0 -0 0 -0 -0 -0 0 -0 -0 -0 0 -0 -0 -0 0 -0 -0 0 0 0 0 0 0 0 0 0 0 0 0 0 -0 0 0 0 0 0
-1 -1 -0 -1 -0 -0 -0 0 -0 -0 -0 -0 -0 -0 0 -0 -0 -0 -0 -0 -0 -0 -0 0 0 0 -0 0 0 0 0 0 0 0 -0 0 0 0 0 0 0 0 0
-0 -0 -0 -0 -0 -0 -0 -0 -0 -0 -0 0 0 -0 -0 -0 -0 0 0 0 0 -0 -0 0 0 0 0 0 0 0 0 0 0 0 0 -0 0 -0 -0 0 0 0 0
-0 -0 -0 -0 -0 -0 -0 -0 -0 -0 -0 0 -0 -0 -0 -0 0 0 0 -0 -0 0 0 0 0 0 0 0 0 0 0 0 0 0 0 0 0 0 0 -0 0 0 0
-0 -0 -0 -1 -1 -0 -0 -0 -0 -0 -0 -0 0 0 -0 -0 -0 0 -0 0 0 0 0 0 0 0 0 0 0 0 0 0 0 0 0 0 0 0 0 0 -0 0 0
Wind_Speed_500mb
41 43 44 39 37 35 33 32 30 26 25 25 24 20 19 18 19 20 21 23 27 22 33 33 22 15 28 31 34 35 39 39 40 39 40 38 38 42 47 45 43 41 44
49 46 45 40 39 37 34 29 26 24 20 19 18 18 18 14 14 17 18 21 26 29 30 24 20 22 31 33 32 34 38 37 36 41 41 38 40 41 44 48 40 45 40
49 47 46 41 37 36 31 26 23 20 17 15 14 12 14 15 16 16 18 20 25 24 21 13 18 28 31 31 31 33 34 36 41 44 47 34 39 36 39 42 41 41 46
48 44 40 40 36 32 28 23 21 18 15 12 10 12 13 15 15 19 17 23 26 22 19 20 23 27 30 32 31 32 33 34 41 39 36 32 34 38 39 40 40 40 40
45 41 40 39 34 29 27 23 19 15 11 9 11 14 14 14 17 17 19 23 26 25 25 23 24 32 33 30 28 29 30 36 37 32 29 33 29 36 38 36 37 38 39
44 38 40 37 33 30 27 24 20 15 11 7 12 16 17 17 17 19 19 26 28 27 26 24 26 32 28 27 25 26 30 36 35 30 28 33 27 37 36 33 35 39 42
42 36 39 35 34 33 29 24 20 16 10 9 16 22 20 18 17 22 23 29 26 26 26 26 25 31 29 24 24 29 30 34 26 26 23 31 29 31 34 34 35 37 34
41 37 36 36 33 31 28 23 19 14 11 15 20 22 23 18 17 21 24 24 20 22 25 23 25 28 24 22 23 26 26 31 23 23 23 22 29 28 31 31 32 34 32
39 38 35 34 33 31 26 21 18 15 11 16 19 19 19 19 18 22 22 20 20 23 28 25 24 20 19 20 21 22 23 31 20 22 19 19 26 26 28 29 29 30 30
37 33 34 33 31 26 23 21 18 15 14 14 18 16 17 19 17 19 20 20 16 27 26 23 21 20 21 21 20 18 19 23 18 16 24 19 23 25 25 26 28 27 26
41 35 32 31 29 30 25 23 20 17 18 14 16 14 14 12 16 16 20 16 19 25 23 20 19 22 19 17 16 17 18 11 17 15 11 21 23 22 23 22 22 24 25
45 43 36 33 29 28 25 25 22 20 15 12 14 12 14 10 17 19 17 18 18 20 19 17 17 17 21 11 12 12 16 11 12 15 14 19 21 20 20 20 19 24 26
43 41 41 37 34 29 26 21 19 17 20 17 17 16 14 15 11 12 16 17 14 16 14 11 12 11 14 12 6 6 13 12 11 16 17 19 19 19 19 19 22 24 26
44 41 40 38 36 32 26 23 21 21 18 17 15 18 17 15 17 16 13 19 22 19 18 17 20 21 16 11 7 14 15 13 19 15 14 18 20 17 16 18 21 23 24
45 42 41 38 37 35 32 25 23 22 22 18 18 20 16 16 17 19 16 14 14 15 14 15 9 11 11 6 6 11 9 14 13 10 10 12 17 17 19 19 21 24 26
42 41 40 40 36 34 31 29 26 23 22 23 18 19 20 17 20 18 19 21 17 16 16 16 17 17 13 13 12 17 18 16 21 18 13 13 14 18 19 21 22 23 24
42 40 40 40 37 36 33 31 27 25 23 23 22 24 21 21 18 21 23 20 21 19 18 17 18 15 18 21 28 34 33 27 23 24 17 16 18 22 24 23 25 25 25
40 43 43 39 40 38 34 32 29 27 26 25 24 23 24 23 19 14 11 12 17 20 18 17 18 21 19 17 23 20 35 30 36 34 29 19 19 21 25 28 28 29 29
43 43 43 41 40 41 38 33 31 30 29 27 26 25 29 28 23 15 12 15 20 17 19 21 19 20 18 20 27 29 30 30 30 30 32 28 23 27 26 33 31 31 32
45 44 44 38 38 40 36 36 31 31 30 30 29 27 32 33 29 23 17 20 19 20 21 26 21 23 20 16 20 26 19 20 27 32 29 36 33 28 38 30 32 35 35
47 46 48 48 37 41 41 39 38 37 34 32 32 37 36 33 29 26 21 21 23 23 24 24 21 22 15 17 21 22 25 24 24 27 34 40 38 29 42 35 33 32 38
53 54 53 50 54 43 42 40 37 36 34 33 32 38 43 38 33 30 26 26 23 20 22 20 18 15 20 22 21 19 12 16 22 31 34 42 40 41 35 43 40 39 35
61 58 60 62 54 52 47 44 38 35 34 37 37 38 47 44 40 36 35 33 30 29 24 27 22 19 19 18 19 20 8 4 3 13 28 35 38 42 47 46 40 44 42
64 58 56 60 63 58 52 51 51 45 41 37 39 37 37 46 42 38 42 43 41 33 31 27 29 30 25 23 19 24 26 18 12 8 14 21 32 41 39 54 47 49 42
56 57 55 58 63 63 56 58 57 51 41 32 33 37 46 41 46 43 38 36 44 43 36 37 32 34 31 25 26 21 26 26 27 26 19 18 20 27 40 43 58 48 44
55 54 52 56 63 63 63 62 58 57 51 39 40 35 35 35 37 45 47 44 41 44 42 38 40 40 38 35 35 32 32 21 22 25 28 22 22 21 23 32 45 52 47
Wind_Direction_500mb
157 158 146 143 145 145 142 139 134 132 124 129 135 121 117 114 111 110 109 121 128 105 122 122 118 103 106 114 114 114 114 110 110 109 109 107 112 104 109 103 98 112 113
153 157 151 147 144 143 142 141 135 131 125 123 122 119 121 121 120 121 115 128 139 126 116 119 108 104 114 114 113 115 114 111 110 114 107 107 115 111 112 119 125 112 115
153 156 157 156 152 149 147 146 141 138 133 126 120 112 116 120 116 120 122 132 143 147 132 116 114 119 119 119 116 117 115 115 113 100 91 99 117 114 117 119 113 112 116
150 154 158 160 158 156 154 152 147 143 138 132 119 112 117 115 115 124 128 133 136 137 132 116 117 121 120 125 119 119 118 118 109 101 114 113 116 113 114 115 115 116 115
148 150 166 166 162 159 158 156 150 142 139 129 126 125 123 123 118 117 130 134 134 132 133 124 120 122 119 124 119 120 127 120 103 98 107 99 109 113 113 118 115 119 117
148 153 163 159 164 161 158 154 147 143 126 105 136 136 135 126 123 118 124 135 134 134 128 120 121 126 122 125 122 125 127 118 101 113 115 109 130 121 115 118 123 120 122
149 157 153 157 163 159 155 155 152 144 121 103 129 138 140 132 130 128 131 138 132 137 132 128 125 128 127 127 125 125 130 111 117 117 116 132 123 124 120 123 119 121 121
154 154 159 159 163 159 157 158 152 140 121 108 126 138 133 127 132 138 140 141 136 141 143 143 137 127 120 111 124 132 129 115 110 123 119 125 126 129 126 126 126 126 124
159 159 159 161 165 162 162 160 154 152 137 120 117 134 141 135 132 140 141 149 142 148 151 141 141 135 114 125 114 135 135 127 126 129 125 132 131 135 131 129 131 131 127
164 171 167 171 174 172 172 168 168 162 154 133 133 134 133 136 138 146 144 147 141 146 150 145 146 144 124 129 119 113 136 128 129 133 135 168 138 143 139 138 135 134 132
169 174 174 174 182 174 177 180 173 173 163 155 143 146 129 149 145 131 155 158 152 147 159 159 143 138 124 133 153 128 110 147 136 143 153 159 147 147 145 145 143 144 139
176 175 178 177 178 178 175 193 170 174 177 171 153 162 150 171 156 166 167 167 161 164 168 168 164 139 108 136 158 167 137 174 141 151 193 158 150 154 156 153 149 151 148
181 181 181 180 180 184 183 181 179 182 194 186 185 169 182 160 160 152 180 166 159 167 152 152 180 146 171 149 160 192 184 144 182 164 205 173 161 156 160 157 156 154 156
185 186 185 186 182 185 189 183 187 186 193 182 192 181 187 165 171 186 195 171 164 196 162 179 180 196 179 178 180 204 196 177 167 165 212 181 176 168 172 171 167 161 162
187 188 187 191 187 187 191 191 196 192 185 188 194 194 182 180 180 179 193 164 185 190 185 180 223 202 187 166 206 211 204 198 187 155 189 191 182 184 185 181 180 177 170
189 191 190 192 194 189 195 194 197 198 198 189 203 205 203 190 176 188 194 186 192 187 200 193 184 201 187 207 218 212 209 200 182 173 193 250 222 200 200 192 192 188 186
192 192 194 193 196 196 198 203 202 205 204 201 200 208 200 200 212 200 208 200 186 197 196 190 193 206 219 234 245 233 224 210 210 219 228 218 242 228 207 207 198 190 191
192 196 194 196 197 200 202 206 205 211 205 207 207 209 206 205 205 209 222 218 187 199 204 222 205 215 247 257 266 266 232 237 236 238 227 215 219 216 229 209 208 199 199
195 197 200 202 199 200 201 205 209 214 209 212 211 207 217 208 211 200 198 197 202 202 213 233 226 241 267 271 265 270 263 240 239 226 226 218 214 210 205 229 211 206 205
198 201 206 208 204 202 202 206 212 215 215 213 214 210 213 213 216 218 217 218 215 221 231 244 245 257 259 285 283 273 275 248 237 231 228 222 215 226 203 222 218 214 210
201 202 208 202 207 201 203 206 211 213 215 216 214 215 212 215 221 226 221 238 241 240 248 253 261 252 265 279 287 279 262 253 250 238 231 231 232 226 217 203 209 215 232
206 207 211 211 220 216 210 208 211 214 216 217 218 219 215 216 220 226 235 232 244 244 254 253 251 254 264 265 276 273 269 245 251 241 236 233 235 224 215 215 217 216 218
208 209 214 218 222 221 211 212 211 211 211 218 216 218 218 221 226 233 239 243 246 254 255 268 257 258 266 271 265 253 280 262 253 235 233 232 230 227 227 223 205 221 220
208 208 211 217 220 222 219 217 218 211 212 216 217 220 218 226 230 239 242 243 250 247 248 252 265 264 262 265 260 253 251 258 259 271 236 228 236 236 237 226 219 221 223
206 207 208 213 218 221 222 224 224 219 221 220 217 220 230 230 235 239 243 245 249 251 250 253 247 263 258 255 255 256 253 258 259 256 263 231 238 245 238 236 230 228 223
206 205 207 209 218 221 225 224 227 227 217 218 221 223 225 233 240 242 242 247 251 253 251 253 259 259 261 261 260 259 260 254 260 254 260 249 250 247 250 233 235 227 223
Wind_Speed_850mb
41 43 44 39 37 35 33 32 30 26 25 25 24 20 19 18 19 20 21 23 27 22 33 33 22 15 28 31 34 35 39 39 40 39 40 38 38 42 47 45 43 41 44
49 46 45 40 39 37 34 29 26 24 20 19 18 18 18 14 14 17 18 21 26 29 30 24 20 22 31 33 32 34 38 37 36 41 41 38 40 41 44 48 40 45 40
49 47 46 41 37 36 31 26 23 20 17 15 14 12 14 15 16 16 18 20 25 24 21 13 18 28 31 31 31 33 34 36 41 44 47 34 39 36 39 42 41 41 46
48 44 40 40 36 32 28 23 21 18 15 12 10 12 13 15 15 19 17 23 26 22 19 20 23 27 30 32 31 32 33 34 41 39 36 32 34 38 39 40 40 40 40
45 41 40 39 34 29 27 23 19 15 11 9 11 14 14 14 17 17 19 23 26 25 25 23 24 32 33 30 28 29 30 36 37 32 29 33 29 36 38 36 37 38 39
44 38 40 37 33 30 27 24 20 15 11 7 12 16 17 17 17 19 19 26 28 27 26 24 26 32 28 27 25 26 30 36 35 30 28 33 27 37 36 33 35 39 42
42 36 39 35 34 33 29 24 20 16 10 9 16 22 20 18 17 22 23 29 26 26 26 26 25 31 29 24 24 29 30 34 26 26 23 31 29 31 34 34 35 37 34
41 37 36 36 33 31 28 23 19 14 11 15 20 22 23 18 17 21 24 24 20 22 25 23 25 28 24 22 23 26 26 31 23 23 23 22 29 28 31 31 32 34 32
39 38 35 34 33 31 26 21 18 15 11 16 19 19 19 19 18 22 22 20 20 23 28 25 24 20 19 20 21 22 23 31 20 22 19 19 26 26 28 29 29 30 30
37 33 34 33 31 26 23 21 18 15 14 14 18 16 17 19 17 19 20 20 16 27 26 23 21 20 21 21 20 18 19 23 18 16 24 19 23 25 25 26 28 27 26
41 35 32 31 29 30 25 23 20 17 18 14 16 14 14 12 16 16 20 16 19 25 23 20 19 22 19 17 16 17 18 11 17 15 11 21 23 22 23 22 22 24 25
45 43 36 33 29 28 25 25 22 20 15 12 14 12 14 10 17 19 17 18 18 20 19 17 17 17 21 11 12 12 16 11 12 15 14 19 21 20 20 20 19 24 26
43 41 41 37 34 29 26 21 19 17 20 17 17 16 14 15 11 12 16 17 14 16 14 11 12 11 14 12 6 6 13 12 11 16 17 19 19 19 19 19 22 24 26
44 41 40 38 36 32 26 23 21 21 18 17 15 18 17 15 17 16 13 19 22 19 18 17 20 21 16 11 7 14 15 13 19 15 14 18 20 17 16 18 21 23 24
45 42 41 38 37 35 32 25 23 22 22 18 18 20 16 16 17 19 16 14 14 15 14 15 9 11 11 6 6 11 9 14 13 10 10 12 17 17 19 19 21 24 26
42 41 40 40 36 34 31 29 26 23 22 23 18 19 20 17 20 18 19 21 17 16 16 16 17 17 13 13 12 17 18 16 21 18 13 13 14 18 19 21 22 23 24
42 40 40 40 37 36 33 31 27 25 23 23 22 24 21 21 18 21 23 20 21 19 18 17 18 15 18 21 28 34 33 27 23 24 17 16 18 22 24 23 25 25 25
40 43 43 39 40 38 34 32 29 27 26 25 24 23 24 23 19 14 11 12 17 20 18 17 18 21 19 17 23 20 35 30 36 34 29 19 19 21 25 28 28 29 29
43 43 43 41 40 41 38 33 31 30 29 27 26 25 29 28 23 15 12 15 20 17 19 21 19 20 18 20 27 29 30 30 30 30 32 28 23 27 26 33 31 31 32
45 44 44 38 38 40 36 36 31 31 30 30 29 27 32 33 29 23 17 20 19 20 21 26 21 23 20 16 20 26 19 20 27 32 29 36 33 28 38 30 32 35 35
47 46 48 48 37 41 41 39 38 37 34 32 32 37 36 33 29 26 21 21 23 23 24 24 21 22 15 17 21 22 25 24 24 27 34 40 38 29 42 35 33 32 38
53 54 53 50 54 43 42 40 37 36 34 33 32 38 43 38 33 30 26 26 23 20 22 20 18 15 20 22 21 19 12 16 22 31 34 42 40 41 35 43 40 39 35
61 58 60 62 54 52 47 44 38 35 34 37 37 38 47 44 40 36 35 33 30 29 24 27 22 19 19 18 19 20 8 4 3 13 28 35 38 42 47 46 40 44 42
64 58 56 60 63 58 52 51 51 45 41 37 39 37 37 46 42 38 42 43 41 33 31 27 29 30 25 23 19 24 26 18 12 8 14 21 32 41 39 54 47 49 42
56 57 55 58 63 63 56 58 57 51 41 32 33 37 46 41 46 43 38 36 44 43 36 37 32 34 31 25 26 21 26 26 27 26 19 18 20 27 40 43 58 48 44
55 54 52 56 63 63 63 62 58 57 51 39 40 35 35 35 37 45 47 44 41 44 42 38 40 40 38 35 35 32 32 21 22 25 28 22 22 21 23 32 45 52 47
Wind_Direction_850mb
157 158 146 143 145 145 142 139 134 132 124 129 135 121 117 114 111 110 109 121 128 105 122 122 118 103 106 114 114 114 114 110 110 109 109 107 112 104 109 103 98 112 113
153 157 151 147 144 143 142 141 135 131 125 123 122 119 121 121 120 121 115 128 139 126 116 119 108 104 114 114 113 115 114 111 110 114 107 107 115 111 112 119 125 112 115
153 156 157 156 152 149 147 146 141 138 133 126 120 112 116 120 116 120 122 132 143 147 132 116 114 119 119 119 116 117 115 115 113 100 91 99 117 114 117 119 113 112 116
150 154 158 160 158 156 154 152 147 143 138 132 119 112 117 115 115 124 128 133 136 137 132 116 117 121 120 125 119 119 118 118 109 101 114 113 116 113 114 115 115 116 115
148 150 166 166 162 159 158 156 150 142 139 129 126 125 123 123 118 117 130 134 134 132 133 124 120 122 119 124 119 120 127 120 103 98 107 99 109 113 113 118 115 119 117
148 153 163 159 164 161 158 154 147 143 126 105 136 136 135 126 123 118 124 135 134 134 128 120 121 126 122 125 122 125 127 118 101 113 115 109 130 121 115 118 123 120 122
149 157 153 157 163 159 155 155 152 144 121 103 129 138 140 132 130 128 131 138 132 137 132 128 125 128 127 127 125 125 130 111 117 117 116 132 123 124 120 123 119 121 121
154 154 159 159 163 159 157 158 152 140 121 108 126 138 133 127 132 138 140 141 136 141 143 143 137 127 120 111 124 132 129 115 110 123 119 125 126 129 126 126 126 126 124
159 159 159 161 165 162 162 160 154 152 137 120 117 134 141 135 132 140 141 149 142 148 151 141 141 135 114 125 114 135 135 127 126 129 125 132 131 135 131 129 131 131 127
164 171 167 171 174 172 172 168 168 162 154 133 133 134 133 136 138 146 144 147 141 146 150 145 146 144 124 129 119 113 136 128 129 133 135 168 138 143 139 138 135 134 132
169 174 174 174 182 174 177 180 173 173 163 155 143 146 129 149 145 131 155 158 152 147 159 159 143 138 124 133 153 128 110 147 136 143 153 159 147 147 145 145 143 144 139
176 175 178 177 178 178 175 193 170 174 177 171 153 162 150 171 156 166 167 167 161 164 168 168 164 139 108 136 158 167 137 174 141 151 193 158 150 154 156 153 149 151 148
181 181 181 180 180 184 183 181 179 182 194 186 185 169 182 160 160 152 180 166 159 167 152 152 180 146 171 149 160 192 184 144 182 164 205 173 161 156 160 157 156 154 156
185 186 185 186 182 185 189 183 187 186 193 182 192 181 187 165 171 186 195 171 164 196 162 179 180 196 179 178 180 204 196 177 167 165 212 181 176 168 172 171 167 161 162
187 188 187 191 187 187 191 191 196 192 185 188 194 194 182 180 180 179 193 164 185 190 185 180 223 202 187 166 206 211 204 198 187 155 189 191 182 184 185 181 180 177 170
189 191 190 192 194 189 195 194 197 198 198 189 203 205 203 190 176 188 194 186 192 187 200 193 184 201 187 207 218 212 209 200 182 173 193 250 222 200 200 192 192 188 186
192 192 194 193 196 196 198 203 202 205 204 201 200 208 200 200 212 200 208 200 186 197 196 190 193 206 219 234 245 233 224 210 210 219 228 218 242 228 207 207 198 190 191
192 196 194 196 197 200 202 206 205 211 205 207 207 209 206 205 205 209 222 218 187 199 204 222 205 215 247 257 266 266 232 237 236 238 227 215 219 216 229 209 208 199 199
195 197 200 202 199 200 201 205 209 214 209 212 211 207 217 208 211 200 198 197 202 202 213 233 226 241 267 271 265 270 263 240 239 226 226 218 214 210 205 229 211 206 205
198 201 206 208 204 202 202 206 212 215 215 213 214 210 213 213 216 218 217 218 215 221 231 244 245 257 259 285 283 273 275 248 237 231 228 222 215 226 203 222 218 214 210
201 202 208 202 207 201 203 206 211 213 215 216 214 215 212 215 221 226 221 238 241 240 248 253 261 252 265 279 287 279 262 253 250 238 231 231 232 226 217 203 209 215 232
206 207 211 211 220 216 210 208 211 214 216 217 218 219 215 216 220 226 235 232 244 244 254 253 251 254 264 265 276 273 269 245 251 241 236 233 235 224 215 215 217 216 218
208 209 214 218 222 221 211 212 211 211 211 218 216 218 218 221 226 233 239 243 246 254 255 268 257 258 266 271 265 253 280 262 253 235 233 232 230 227 227 223 205 221 220
208 208 211 217 220 222 219 217 218 211 212 216 217 220 218 226 230 239 242 243 250 247 248 252 265 264 262 265 260 253 251 258 259 271 236 228 236 236 237 226 219 221 223
206 207 208 213 218 221 222 224 224 219 221 220 217 220 230 230 235 239 243 245 249 251 250 253 247 263 258 255 255 256 253 258 259 256 263 231 238 245 238 236 230 228 223
206 205 207 209 218 221 225 224 227 227 217 218 221 223 225 233 240 242 242 247 251 253 251 253 259 259 261 261 260 259 260 254 260 254 260 249 250 247 250 233 235 227 223